Wind_Speed
11 18 18 20 19 22 23 22 16 17 18 23 21 22 18 20 20 26 16 9 39 43 46 46 47 48 48 48 45 42 44 43
16 9 14 20 19 18 15 22 24 18 21 13 20 18 17 19 21 21 24 37 41 41 44 45 48 46 46 45 47 45 41 45
17 13 13 13 15 20 19 17 18 16 16 18 14 22 18 20 30 31 23 29 35 24 40 44 44 45 46 46 43 46 44 43
17 19 19 17 21 20 14 18 16 15 17 21 10 9 21 23 25 36 41 42 33 36 38 43 44 45 46 46 46 46 46 43
15 15 20 13 19 20 21 19 22 16 15 25 17 13 9 19 22 26 44 50 44 44 47 49 46 45 45 47 47 43 43 43
14 11 13 12 15 19 21 16 17 20 24 21 16 8 13 10 6 18 34 46 40 44 37 49 50 47 45 44 44 44 42 44
21 24 20 18 17 18 20 23 20 19 22 22 9 21 20 28 29 15 19 15 26 25 23 43 46 47 46 42 43 43 44 45
20 22 21 21 19 18 20 20 22 18 21 20 21 8 27 29 32 42 11 3 8 7 27 30 26 44 45 45 43 44 44 46
18 17 21 21 20 19 20 20 18 18 19 18 15 16 11 20 23 30 35 9 10 11 11 14 27 16 42 44 43 42 45 43
11 14 15 15 21 21 24 24 20 20 21 22 23 26 25 24 18 25 35 22 14 14 17 9 5 38 33 38 41 41 43 42
8 13 16 23 11 8 10 12 9 18 17 31 25 31 29 16 16 15 17 34 22 15 16 19 18 13 6 33 39 44 41 45
10 14 16 18 8 10 11 10 17 18 19 27 33 14 4 18 13 18 19 24 29 23 18 17 20 24 21 15 32 42 38 45
13 11 14 5 5 9 10 5 19 18 19 23 16 17 17 13 14 14 16 21 26 22 23 19 20 23 26 30 25 35 40 37
10 11 14 4 8 12 10 16 20 20 19 24 25 24 21 17 16 16 19 22 20 20 16 17 18 22 27 31 37 29 32 40
4 4 14 8 6 11 14 16 21 22 21 23 28 21 19 16 15 14 16 17 17 11 9 9 14 11 16 32 30 36 27 37
10 3 15 16 12 12 13 15 20 22 24 24 27 21 19 15 13 13 17 18 18 12 6 10 13 9 9 16 29 32 39 36
5 7 18 3 18 19 19 20 18 21 23 23 17 16 14 13 11 8 13 16 17 16 9 8 9 7 7 13 18 29 34 37
3 15 12 18 19 18 20 19 24 19 14 13 13 10 10 10 10 6 9 15 20 19 15 11 14 8 3 8 12 17 23 30
4 13 10 13 16 16 16 16 14 13 12 7 7 7 8 10 7 3 6 10 15 18 16 13 13 14 5 3 13 18 18 24
Wind_Direction
265 214 226 247 225 238 262 269 258 255 227 229 245 245 201 160 168 173 234 250 192 193 193 194 194 196 196 200 212 215 212 214
285 211 258 231 257 231 230 249 260 265 265 237 207 237 219 145 157 189 233 237 264 192 194 197 197 199 198 201 210 215 218 216
291 266 234 231 248 259 270 231 252 256 258 271 213 206 216 185 177 175 178 204 244 266 197 198 198 199 201 201 206 210 216 220
266 275 270 227 265 253 248 253 266 257 255 260 343 251 206 228 221 174 173 194 193 245 242 194 197 199 201 202 204 211 214 214
264 265 267 249 243 254 267 252 255 255 241 263 288 331 254 205 226 168 173 181 180 195 226 190 193 198 200 203 205 207 207 210
278 280 338 305 246 259 271 256 252 250 266 276 257 304 327 348 309 242 178 176 181 193 217 186 187 194 198 202 203 205 209 209
278 284 287 282 283 285 270 259 259 249 254 262 21 355 340 349 349 267 231 248 237 235 193 184 182 191 196 200 202 204 207 211
274 284 276 264 263 264 275 281 277 263 277 291 332 57 294 332 357 342 255 222 329 349 227 178 208 191 196 199 202 203 208 211
273 275 278 268 255 260 263 263 270 267 264 282 302 301 286 320 347 336 343 23 8 349 32 185 177 212 195 200 203 205 208 210
268 286 271 259 279 250 245 250 257 264 272 280 288 288 295 306 312 316 340 347 349 336 334 354 138 227 221 206 205 207 211 211
249 255 266 284 289 6 351 258 280 354 326 319 298 271 270 16 14 326 335 340 329 325 320 310 285 256 248 206 213 212 213 216
233 251 252 256 62 348 327 260 26 3 347 340 334 296 63 15 8 356 317 315 316 313 301 290 278 260 262 239 215 215 218 217
225 243 261 63 345 307 258 290 343 340 336 340 326 336 337 356 4 347 346 308 303 303 295 279 277 266 255 238 231 230 227 221
240 248 258 66 242 245 345 325 319 327 318 324 320 318 322 336 345 348 335 320 318 305 300 316 298 264 252 244 224 224 229 219
227 290 50 19 335 314 306 295 301 313 304 305 313 303 309 332 331 342 337 334 329 330 292 268 271 274 258 249 249 231 231 225
343 62 349 317 329 335 323 305 299 292 291 286 291 291 299 318 329 343 353 354 352 345 305 309 301 288 247 225 228 235 224 226
268 308 332 15 337 325 313 315 308 295 284 267 266 276 288 297 324 347 353 0 351 6 17 4 355 341 250 225 213 222 215 215
301 310 306 296 315 320 318 316 316 300 290 246 241 256 277 267 327 344 342 360 360 359 7 360 4 14 248 222 196 186 197 196
267 308 309 308 314 314 309 311 314 310 287 256 220 236 259 260 311 331 357 359 1 355 352 348 358 30 82 204 204 203 208 210
Height
1435 1442 1449 1452 1455 1448 1457 1443 1446 1434 1421 1417 1414 1416 1419 1433 1442 1449 1459 1468 1475 1480 1486 1491 1498 1503 1508 1513 1521 1528 1534 1541
1444 1442 1445 1448 1444 1457 1453 1477 1471 1445 1429 1422 1416 1415 1414 1427 1432 1440 1447 1466 1481 1478 1483 1486 1491 1498 1506 1511 1514 1521 1529 1535
1454 1449 1453 1452 1453 1449 1445 1445 1459 1463 1437 1401 1403 1404 1408 1416 1423 1429 1438 1467 1469 1480 1479 1482 1489 1494 1499 1506 1511 1516 1522 1528
1466 1451 1445 1448 1450 1448 1455 1460 1445 1442 1435 1398 1399 1398 1401 1407 1413 1422 1427 1447 1469 1467 1472 1475 1480 1487 1491 1498 1504 1507 1514 1522
1477 1465 1451 1448 1449 1448 1444 1442 1448 1450 1440 1401 1408 1408 1401 1404 1411 1420 1428 1437 1440 1445 1455 1458 1467 1477 1483 1490 1495 1503 1510 1515
1483 1464 1468 1465 1452 1453 1450 1448 1447 1438 1436 1415 1414 1415 1415 1412 1413 1418 1429 1430 1431 1436 1445 1445 1450 1464 1474 1482 1489 1496 1501 1507
1487 1477 1473 1469 1465 1459 1454 1446 1446 1437 1434 1421 1429 1431 1430 1427 1424 1421 1422 1425 1427 1429 1433 1435 1440 1453 1464 1475 1481 1488 1494 1497
1491 1482 1474 1472 1466 1464 1461 1453 1444 1438 1440 1426 1437 1446 1436 1434 1431 1430 1423 1425 1428 1430 1430 1432 1448 1449 1460 1468 1474 1480 1485 1489
1500 1486 1484 1476 1468 1466 1461 1455 1453 1452 1443 1441 1446 1446 1444 1441 1442 1437 1432 1428 1431 1433 1438 1437 1432 1448 1453 1462 1471 1474 1479 1484
1507 1502 1505 1475 1461 1457 1457 1453 1452 1452 1449 1449 1449 1450 1449 1447 1443 1444 1443 1440 1438 1439 1438 1449 1444 1452 1457 1460 1467 1469 1472 1477
1508 1501 1492 1475 1464 1469 1467 1457 1455 1463 1456 1452 1452 1448 1447 1453 1450 1453 1449 1444 1446 1444 1442 1442 1442 1443 1451 1455 1457 1462 1465 1468
1499 1498 1491 1472 1477 1478 1474 1470 1470 1473 1472 1471 1462 1447 1459 1457 1454 1457 1453 1453 1452 1447 1444 1445 1444 1443 1446 1448 1452 1451 1454 1459
1492 1499 1482 1482 1479 1481 1483 1473 1478 1479 1479 1479 1474 1472 1469 1465 1460 1460 1455 1460 1455 1446 1443 1441 1441 1443 1441 1442 1442 1444 1448 1454
1491 1492 1494 1481 1481 1484 1485 1483 1481 1478 1478 1476 1478 1472 1465 1466 1463 1460 1458 1454 1448 1445 1439 1438 1435 1435 1433 1433 1436 1440 1443 1446
1493 1482 1484 1489 1491 1490 1488 1487 1484 1480 1476 1473 1471 1472 1471 1466 1463 1459 1461 1454 1450 1442 1433 1429 1428 1427 1425 1427 1429 1433 1438 1438
1499 1485 1493 1490 1488 1488 1487 1485 1482 1478 1474 1472 1469 1468 1464 1463 1462 1458 1455 1450 1443 1436 1428 1426 1426 1424 1420 1420 1422 1426 1431 1433
1502 1497 1492 1487 1489 1487 1483 1480 1476 1472 1468 1468 1467 1465 1462 1460 1458 1457 1453 1450 1447 1438 1428 1426 1426 1423 1419 1417 1416 1418 1422 1427
1505 1502 1500 1493 1488 1483 1478 1474 1472 1470 1466 1463 1463 1461 1460 1458 1456 1455 1451 1449 1442 1434 1429 1429 1427 1422 1417 1416 1414 1415 1419 1422
1507 1501 1497 1493 1488 1484 1480 1476 1472 1468 1464 1459 1459 1458 1458 1456 1454 1451 1447 1445 1443 1437 1435 1432 1427 1421 1417 1415 1414 1414 1416 1419